Weather in Strasbourg

France     48°34′46″N   7°43′49″E
temp.,
°C
wind,
m/s
gust,
m/s
humid.,
%
clouds,
%
prec.,
mm/h
press.,
hPa
HPBL,
m
14 april, wed
wed1423:00+3ne24630 0.0 1031102
02:00+1nne23700 0.0 103182
05:000nne23755 0.0 103080
08:00+2n24725 0.0 1030185
11:00+7nne445120 0.0 1029986
14:00+9nne5539100 0.1 10272103
17:00+10nne5536100 0.0 10262160
20:00+6nne2454100 0.0 1026116
15 april, thu
thu1523:00+3nne366389 0.0 1027177
02:00+2n247315 0.0 1027130
05:000n248018 0.0 1027123
08:00+1n35765 0.0 1028232
11:00+7nne45557 0.0 1027945
14:00+10nne564295 0.4 10252027
17:00+10ne673925 0.1 10242169
20:00+7nne510613 0.1 1025546
16 april, fri
fri1623:00+3nne37692 0.0 1025240
02:00+2nne36671 0.0 1025164
05:000nne37730 0.0 1025193
08:00+1nne47724 0.0 1025308
11:00+7nne55546 0.0 10241261
14:00+10nne774675 0.0 10221720
17:00+9nne88515 0.0 10221250
20:00+6nne510654 0.0 1023621
17 april, sat
sat1723:00+4ne357813 0.0 1024203
02:00+2ne23855 0.0 102398
05:00+1nne23905 0.0 102278
08:00+3nne248536 0.0 1023199
11:00+8nne456498 0.0 10221211
14:00+9nne566092 0.0 10211228
17:00+10ne465877 0.1 10211324
20:00+8nne236788 0.1 102148
18 april, sun
sun1823:00+7nne367293 0.0 1022217
02:00+5nne478589 0.0 1022233
05:00+4nne48915 0.0 1022253
08:00+4n358849 0.0 1023242
11:00+9nne456950 0.0 1023856
14:00+11nne346081 0.1 10221135
17:00+13nne455278 0.1 10201544
20:00+10nne377299 0.1 1021242